This is the latest recevied weather packets stored in our database for station/object LA4GY-1. If no packets are shown the sender has not sent any weather packets the latest 10 day(s).
| Time | Temp. | Humidity | Pressure | Rain* | Wind** | Luminosity | Snow |
|---|---|---|---|---|---|---|---|
| 1777515606 | 7.22° C | 93% | 1022.6 hPa | 0.25 mm | - | - | - |
| 1777510206 | 7.22° C | 93% | 1022.6 hPa | 0.51 mm | - | - | - |
| 1777505406 | 7.22° C | 93% | 1022.5 hPa | 0.51 mm | - | - | - |
| 1777504806 | 7.22° C | 93% | 1022.4 hPa | 0.51 mm | - | - | - |
| 1777499406 | 7.22° C | 93% | 1022.1 hPa | 0.51 mm | - | - | - |
| 1777498806 | 7.22° C | 93% | 1022.1 hPa | 0.51 mm | - | - | - |
| 1777497606 | 7.22° C | 93% | 1022 hPa | 0.51 mm | - | - | - |
| 1777495206 | 7.22° C | 93% | 1021.7 hPa | 0.51 mm | - | - | - |
| 1777489205 | 7.78° C | 93% | 1022 hPa | 1.27 mm | - | - | - |
| 1777482006 | 7.22° C | 94% | 1021.7 hPa | 1.02 mm | - | - | - |
| 1777478405 | 6.67° C | 94% | 1021.8 hPa | 0.51 mm | - | - | - |
| 1777477805 | 6.67° C | 94% | 1021.9 hPa | 0.51 mm | - | - | - |
| 1777477206 | 6.11° C | 94% | 1021.9 hPa | 0.51 mm | - | - | - |
| 1777476605 | 5° C | 93% | 1021.8 hPa | 0.51 mm | - | - | - |
| 1777473606 | 5.56° C | 93% | 1021.9 hPa | 0.25 mm | - | - | - |
| 1777471805 | 5° C | 92% | 1022 hPa | 0.25 mm | - | - | - |
| 1777470606 | 5° C | 93% | 1022.3 hPa | 0.25 mm | - | - | - |
| 1777464605 | 4.44° C | 92% | 1022.7 hPa | 0 mm | - | - | - |
| 1777464005 | 4.44° C | 92% | 1022.6 hPa | 0 mm | - | - | - |
| 1777461605 | 4.44° C | 91% | 1022.9 hPa | 0.25 mm | - | - | - |
| 1777456806 | 3.89° C | 92% | 1023.1 hPa | 0.51 mm | - | - | - |
| 1777454405 | 3.33° C | 91% | 1023.3 hPa | 0 mm | - | - | - |
| 1777451406 | 3.33° C | 92% | 1023.2 hPa | 0 mm | - | - | - |
| 1777444205 | 2.78° C | 89% | 1024 hPa | 0 mm | - | - | - |
| 1777438205 | 2.78° C | 88% | 1024.6 hPa | 0.25 mm | - | - | - |
* Rain latest hour (hover to see other rain measurements)
** Current wind speed in m/s (hover to see current wind gust speed)